[Iaude] MPEC D54: 2024 BZ15 [a=2.43,e=0.62,i=0.7,H=26.4]

mpec at cfa.harvard.edu mpec at cfa.harvard.edu
Sun Feb 18 11:05:43 EST 2024


M.P.E.C. 2024-D54                             Issued 2024 February 18, 16:04 UT

     The Minor Planet Electronic Circulars contain information on unusual
         minor planets, routine data on comets and natural satellites,
         and occasional editorial announcements.  They are published
    on behalf of Division F of the International Astronomical Union by the
          Minor Planet Center, Smithsonian Astrophysical Observatory,
                          Cambridge, MA 02138, U.S.A.
			  
             Prepared using the Tamkin Foundation Computer Network

                              MPC at CFA.HARVARD.EDU
            URL https://www.minorplanetcenter.net/    ISSN 1523-6714

                                   2024 BZ15                                    


Observations:
     K24B15Z*1C2024 01 19.46460111 02 23.935+21 50 24.18         21.21GVED054G96
     K24B15Z 1C2024 01 19.46975611 02 21.732+21 50 00.56         21.12GVED054G96
     K24B15Z 1C2024 01 19.47490711 02 19.540+21 49 37.60         21.12GVED054G96
     K24B15Z 1C2024 01 19.48005711 02 17.376+21 49 14.81         20.75GVED054G96
     K24B15Z KC2024 01 19.50483711 02 07.004+21 47 23.71         20.78GVED054I52
     K24B15Z KC2024 01 19.50644311 02 06.306+21 47 16.12         21.04GVED054I52
     K24B15Z KC2024 01 19.50806711 02 05.636+21 47 09.20         21.96GVED054I52
     K24B15Z KC2024 01 19.50968611 02 04.967+21 47 01.93         21.18GVED054I52
     K24B15Z 1C2024 01 19.52719511 01 57.774+21 45 42.44         20.72GVED054G96
     K24B15Z 1C2024 01 19.52761411 01 57.616+21 45 41.54         21.09GVED054G96
     K24B15Z 1C2024 01 19.52802911 01 57.439+21 45 39.02         21.79GVED054G96
     K24B15Z 1C2024 01 19.52844411 01 57.220+21 45 37.19         21.14GVED054G96
     K24B15Z 1C2024 01 20.54659810 56 39.304+20 39 57.85         21.53GVED054G96
     K24B15Z 1C2024 01 20.54718610 56 39.152+20 39 55.73         21.56GVED054G96
     K24B15Z 1C2024 01 20.54777910 56 38.951+20 39 54.07         20.97GVED054G96
     K24B15Z 1C2024 01 20.54836810 56 38.742+20 39 51.41         21.24GVED054G96
     K24B15Z 1C2024 01 20.54895710 56 38.555+20 39 49.43         21.37GVED054G96
     K24B15Z 1C2024 01 20.54954610 56 38.364+20 39 47.20         21.53GVED054G96
     K24B15Z 1C2024 01 20.55013910 56 38.188+20 39 45.11         21.52GVED054G96
     K24B15Z 1C2024 01 20.55072810 56 38.018+20 39 42.98         21.19GVED054G96
     K24B15Z 1C2024 01 20.55131610 56 37.770+20 39 40.36         21.43GVED054G96
     K24B15Z 1C2024 01 20.55190510 56 37.601+20 39 38.95         20.99GVED054G96

Observer details:
G96 Mt. Lemmon Survey.  Observer A. R. Gibbs.  Measurers T. Beuden, V. F.
    Carvajal, D. Fay, J. B. Fazekas, D. C. Fuls, A. R. Gibbs, A. D. Grauer, H.
    Groeller, J. K. Hogan, R. A. Kowalski, S. M. Larson, G. J. Leonard, D.
    Rankin, R. L. Seaman, F. C. Shelly, K. W. Wierzchos.  1.5-m reflector +
    10K CCD.
I52 Steward Observatory, Mt. Lemmon Station.  Observer R. A. Kowalski.
    Measurers E. C. Beshore, D. Fay, J. B. Fazekas, D. C. Fuls, A. R. Gibbs,
    A. D. Grauer, H. Groeller, J. K. Hogan, R. A. Kowalski, S. M. Larson, G.
    J. Leonard, D. Rankin, R. L. Seaman, F. C. Shelly, K. W. Wierzchos.  1.0-m
    prime focus + CCD.

Orbital elements:
2024 BZ15                                                Earth MOID = 0.0011 AU
Epoch 2024 Mar. 31.0 TT = JDT 2460400.5                 Veres                   
M  26.69229              (2000.0)            P               Q                  
n   0.26050191     Peri.   39.06868     +0.18381254     -0.98293157             
a   2.4280751      Node    40.34107     +0.89886200     +0.16493250             
e   0.6189103      Incl.    0.67685     +0.39781913     +0.08150336             
P   3.78           H   26.40          G   0.15           U   9                  
Residuals in seconds of arc
240119 G96  0.3+  0.5+    240119 G96  0.2+  0.4-    240120 G96  0.1-  0.1+
240119 G96  0.1+  0.1-    240119 G96  0.3+  0.6+    240120 G96  0.1-  0.0
240119 G96  0.1-  0.1-    240119 G96  0.2+  0.1-    240120 G96  0.1+  0.1+
240119 G96  0.1+  0.1+    240119 G96  0.5-  0.0     240120 G96  0.4+  0.1+
240119 I52  0.3+  0.1+    240120 G96  0.3-  0.1-    240120 G96  0.4-  0.4-
240119 I52  0.2-  0.3-    240120 G96  0.3+  0.1-    240120 G96  0.1-  0.4+
240119 I52  0.1-  0.1+    240120 G96  0.1+  0.4+
240119 I52  0.1-  0.1+    240120 G96  0.1-  0.1-

Ephemeris:
2024 BZ15                a,e,i = 2.43, 0.62, 1                   q = 0.9253
Date    TT    R. A. (2000) Decl.     Delta      r    Elong.  Phase     V
2024 01 19    11 05 21.0 +22 27 01   0.04498 1.0173   137.2    41.1    21.3
...
2024 02 03    10 28 06.0 +15 32 02   0.1368  1.1147   159.5    18.0    23.3
...
2024 02 11    10 20 02.5 +14 44 53   0.1910  1.1749   169.1     9.1    23.8
...
2024 02 17    10 15 32.4 +14 24 00   0.2353  1.2227   175.4     3.7    24.0
2024 02 18    10 14 54.6 +14 21 02   0.2431  1.2308   176.2     3.1    24.1
2024 02 19    10 14 18.8 +14 18 09   0.2509  1.2389   176.7     2.6    24.1
...
2024 02 25    10 11 25.3 +14 01 57   0.3005  1.2887   173.7     4.9    24.8
...
2024 03 04    10 09 21.5 +13 40 15   0.3735  1.3567   165.7    10.4    25.6
...
2024 03 19    10 10 47.0 +12 49 43   0.5336  1.4865   151.5    18.6    26.9

M. P. C. Staff               (C) Copyright 2024 MPC           M.P.E.C. 2024-D54





More information about the Iaude mailing list